DW0935 Siasconset MA US current weather conditions

sailwx.info

Wind from 260 at 5 knots gusting 8

Air temperature 1.7° C
Dewpoint 0.5° C

Last reported at 2020-Jan-27 11:02 UTC.
Time now 2020-Jan-27 11:37 UTC

Location: N 41°17' W 069°58'.
View on Google Maps.

See reports from other nearby stations

  
Tides and Currents Weather Stations Pressure Air Temp Water Temp Dewpoint Dewpoint Depression Visibility Wind Speed Wind Dir Waves Ship Positions
date/time (UTC)wind fromknots sea level pressurealtimeterstation pressurevisibilityair tempwater tempwave heightnotes
2020-Jan-27 11:02 260 5 gusting 8 1.7
2020-Jan-27 10:47 260 5 gusting 8 1.7
2020-Jan-27 10:32 270 6 gusting 10 1.7
2020-Jan-27 10:17 274 6 gusting 10 2.2
2020-Jan-27 10:01 280 7 gusting 10 2.2
2020-Jan-27 09:47 276 6 gusting 12 2.2
2020-Jan-27 09:31 277 7 gusting 12 2.2
2020-Jan-27 09:18 283 6 gusting 9 1.7
2020-Jan-27 09:02 273 6 gusting 10 1.7
2020-Jan-27 08:46 286 5 gusting 7 1.1
2020-Jan-27 08:31 284 6 gusting 8 1.1
2020-Jan-27 08:16 286 5 gusting 7 1.1
2020-Jan-27 08:00 280 4 gusting 6 1.7
2020-Jan-27 07:46 279 4 gusting 7 1.7
2020-Jan-27 07:31 292 4 gusting 6 1.7
2020-Jan-27 07:16 281 4 gusting 7 1.7
2020-Jan-27 07:01 276 5 gusting 8 2.2
2020-Jan-27 06:46 265 5 gusting 8 2.2
2020-Jan-27 06:31 263 6 gusting 8 2.8
2020-Jan-27 06:16 283 6 gusting 13 2.8
2020-Jan-27 06:00 288 7 gusting 12 2.8
2020-Jan-27 05:45 288 9 gusting 14 3.3
2020-Jan-27 05:30 286 8 gusting 13 2.8
2020-Jan-27 05:15 287 7 gusting 13 2.8
2020-Jan-27 05:00 275 6 gusting 10 2.2
2020-Jan-27 04:45 287 6 gusting 10 2.8
2020-Jan-27 04:30 292 6 gusting 11 2.8
2020-Jan-27 04:15 291 6 gusting 13 2.8
2020-Jan-27 04:00 284 7 gusting 12 2.8
2020-Jan-27 03:45 288 7 gusting 13 2.8
2020-Jan-27 03:30 300 7 gusting 14 2.8
2020-Jan-27 03:18 283 7 gusting 13 2.8
2020-Jan-27 03:01 277 7 gusting 13 2.2
2020-Jan-27 02:49 257 5 gusting 8 2.2
2020-Jan-27 02:31 267 6 gusting 8 2.2
2020-Jan-27 02:17 281 5 gusting 7 2.2
2020-Jan-27 02:02 267 4 gusting 8 2.8
2020-Jan-27 01:47 271 5 gusting 8 2.8
2020-Jan-27 01:31 291 5 gusting 8 2.8
2020-Jan-27 01:16 278 6 gusting 9 3.3
2020-Jan-27 01:01 280 7 gusting 11 3.3
2020-Jan-27 00:46 277 8 gusting 14 3.9
2020-Jan-27 00:31 300 8 gusting 17 3.9
2020-Jan-27 00:16 284 10 gusting 13 3.9
2020-Jan-27 00:01 277 9 gusting 18 4.4
2020-Jan-26 23:46 292 9 gusting 15 3.9
2020-Jan-26 23:32 285 7 gusting 14 4.4
2020-Jan-26 23:16 288 10 gusting 16 4.4
2020-Jan-26 22:45 295 10 gusting 18 4.4
2020-Jan-26 22:30 261 11 gusting 19 4.4
2020-Jan-26 22:15 282 11 gusting 20 4.4
2020-Jan-26 22:02 277 9 gusting 16 4.4
2020-Jan-26 21:45 286 9 gusting 18 4.4
2020-Jan-26 21:30 278 11 gusting 18 5.0
2020-Jan-26 21:15 263 8 gusting 17 5.6
2020-Jan-26 21:00 265 10 gusting 22 5.6
2020-Jan-26 20:45 291 12 gusting 20 5.6
2020-Jan-26 20:30 276 13 gusting 23 6.1
2020-Jan-26 20:15 258 11 gusting 22 6.1
2020-Jan-26 20:00 283 13 gusting 25 6.1
2020-Jan-26 19:45 258 14 gusting 22 6.7
2020-Jan-26 19:30 245 13 gusting 26 6.7
2020-Jan-26 19:15 286 15 gusting 26 6.7
2020-Jan-26 19:00 280 15 gusting 27 6.7
2020-Jan-26 18:45 279 14 gusting 21 7.2
2020-Jan-26 18:30 261 13 gusting 20 6.7
2020-Jan-26 18:15 263 13 gusting 25 6.7
2020-Jan-26 18:02 291 13 gusting 23 6.7
2020-Jan-26 17:47 267 12 gusting 19 6.7
2020-Jan-26 17:32 284 15 gusting 21 6.1
2020-Jan-26 17:17 306 13 gusting 21 6.7
2020-Jan-26 17:01 290 13 gusting 22 6.7
2020-Jan-26 16:48 296 13 gusting 20 6.1
2020-Jan-26 16:32 293 14 gusting 21 5.6
2020-Jan-26 16:18 299 10 gusting 21 5.6
2020-Jan-26 16:02 293 13 gusting 19 5.0
2020-Jan-26 15:46 286 10 gusting 19 5.0
2020-Jan-26 15:31 288 13 gusting 21 4.4
2020-Jan-26 15:17 284 9 gusting 17 5.0
2020-Jan-26 15:02 289 13 gusting 19 5.0
2020-Jan-26 14:46 272 11 gusting 21 5.0
2020-Jan-26 14:31 289 13 gusting 21 5.0
2020-Jan-26 14:15 282 13 gusting 24 5.0
2020-Jan-26 14:00 275 10 gusting 19 5.0
2020-Jan-26 13:46 263 9 gusting 19 5.0
2020-Jan-26 13:31 263 8 gusting 17 5.0
2020-Jan-26 13:16 290 12 gusting 18 5.0
2020-Jan-26 13:00 270 10 gusting 17 5.0
2020-Jan-26 12:45 276 9 gusting 18 5.0
2020-Jan-26 12:30 269 8 gusting 16 5.0
2020-Jan-26 12:16 253 9 gusting 18 5.0
2020-Jan-26 12:01 288 8 gusting 16 5.0
2020-Jan-26 11:45 261 9 gusting 14 5.0
2020-Jan-26 11:30 286 9 gusting 14 5.0
2020-Jan-26 11:15 290 7 gusting 16 5.0
2020-Jan-26 11:00 289 12 gusting 19 5.0
2020-Jan-26 10:46 282 13 gusting 19 5.0
2020-Jan-26 10:31 276 8 gusting 15 5.6
2020-Jan-26 10:15 281 8 gusting 12 5.6
2020-Jan-26 10:00 282 6 gusting 12 5.6
2020-Jan-26 09:45 246 8 gusting 19 5.6
2020-Jan-26 09:30 271 8 gusting 13 5.6
2020-Jan-26 09:15 254 8 gusting 16 5.6
2020-Jan-26 09:00 286 10 gusting 18 5.6
2020-Jan-26 08:45 239 8 gusting 15 5.6
2020-Jan-26 08:30 244 6 gusting 12 5.6
2020-Jan-26 08:15 246 7 gusting 13 5.6
2020-Jan-26 08:00 262 7 gusting 16 5.6
2020-Jan-26 07:45 286 10 gusting 18 6.1
2020-Jan-26 07:30 248 7 gusting 13 6.1
2020-Jan-26 07:15 269 5 gusting 13 6.7
2020-Jan-26 07:01 284 8 gusting 14 7.2
2020-Jan-26 06:47 263 3 gusting 6 7.8
2020-Jan-26 06:32 280 4 gusting 6 8.3
2020-Jan-26 06:18 276 4 gusting 8 8.9
2020-Jan-26 06:02 271 4 gusting 8 8.9
2020-Jan-26 05:47 277 4 gusting 10 8.9
2020-Jan-26 05:31 250 11 gusting 20 10.0
2020-Jan-26 05:16 220 11 gusting 21 9.4
2020-Jan-26 05:01 203 10 gusting 15 8.3
2020-Jan-26 04:48 169 10 gusting 16 7.8
2020-Jan-26 04:31 162 8 gusting 14 7.8
2020-Jan-26 04:16 169 12 gusting 19 8.9
2020-Jan-26 04:01 242 9 gusting 14 8.3
2020-Jan-26 03:45 169 13 gusting 19 7.8
2020-Jan-26 03:31 141 10 gusting 19 7.8
2020-Jan-26 03:16 172 12 gusting 24 7.8
2020-Jan-26 03:01 180 14 gusting 20 8.3
2020-Jan-26 02:45 147 14 gusting 22 8.3
2020-Jan-26 02:30 130 18 gusting 27 7.8
2020-Jan-26 02:15 151 16 gusting 23 7.2
2020-Jan-26 02:01 130 17 gusting 25 7.2
2020-Jan-26 01:45 130 20 gusting 26 7.2
2020-Jan-26 01:30 138 21 gusting 28 7.2
2020-Jan-26 01:15 120 25 gusting 30 7.2
2020-Jan-26 01:00 130 26 gusting 32 7.2
2020-Jan-26 00:45 130 24 gusting 30 7.8
2020-Jan-26 00:30 125 25 gusting 28 7.2
2020-Jan-26 00:15 113 20 gusting 29 6.7
2020-Jan-26 00:02 120 22 gusting 30 6.7
2020-Jan-25 23:47 120 20 gusting 27 6.7
2020-Jan-25 23:33 087 18 gusting 27 6.7
2020-Jan-25 23:16 120 14 gusting 24 6.7
2020-Jan-25 23:02 236 12 gusting 19 6.7
2020-Jan-25 22:45 008 10 gusting 18 6.7
2020-Jan-25 22:32 125 13 gusting 22 6.7
2020-Jan-25 22:18 238 10 gusting 18 6.7
2020-Jan-25 22:01 234 10 gusting 19 6.7
2020-Jan-25 21:47 319 8 gusting 14 6.7
2020-Jan-25 21:31 313 8 gusting 16 6.7
2020-Jan-25 21:16 114 8 gusting 16 6.7
2020-Jan-25 21:01 166 8 gusting 16 6.7
2020-Jan-25 20:46 304 7 gusting 16 6.7
2020-Jan-25 20:30 104 7 gusting 16 6.7
2020-Jan-25 20:16 094 7 gusting 15 6.7
2020-Jan-25 20:01 309 7 gusting 15 6.7
2020-Jan-25 19:45 098 7 gusting 13 6.7
2020-Jan-25 19:31 161 6 gusting 14 6.7
2020-Jan-25 19:16 130 6 gusting 14 6.7
2020-Jan-25 19:01 120 7 gusting 14 6.7
2020-Jan-25 18:45 338 6 gusting 13 6.7
2020-Jan-25 18:30 130 6 gusting 14 6.1
2020-Jan-25 18:15 134 6 gusting 13 6.1
2020-Jan-25 18:00 015 6 gusting 12 6.1
2020-Jan-25 17:45 003 6 gusting 13 6.1
2020-Jan-25 17:30 120 6 gusting 13 6.1
2020-Jan-25 17:15 021 6 gusting 10 6.1
2020-Jan-25 17:03 002 6 gusting 12 6.1
2020-Jan-25 16:47 095 6 gusting 15 6.1
2020-Jan-25 16:31 042 6 gusting 13 6.1
2020-Jan-25 16:17 175 6 gusting 11 6.1
2020-Jan-25 16:01 279 6 gusting 13 5.6
2020-Jan-25 15:46 274 6 gusting 17 6.1
2020-Jan-25 15:32 317 6 gusting 12 6.1
2020-Jan-25 15:16 298 6 gusting 13 6.1
2020-Jan-25 15:01 319 6 gusting 13 6.1
2020-Jan-25 14:47 104 6 gusting 13 5.6
2020-Jan-25 14:30 342 6 gusting 13 5.6
2020-Jan-25 14:15 094 6 gusting 13 5.6
2020-Jan-25 14:01 055 6 gusting 13 5.6
2020-Jan-25 13:46 003 7 gusting 17 5.6
2020-Jan-25 13:31 246 8 gusting 15 5.6
2020-Jan-25 13:16 255 6 gusting 14 5.6
2020-Jan-25 13:00 295 6 gusting 16 5.0
2020-Jan-25 12:46 274 6 gusting 14 5.0
2020-Jan-25 12:31 213 6 gusting 14 5.0
2020-Jan-25 12:16 090 5 gusting 13 5.0
2020-Jan-25 12:01 272 6 gusting 13 5.0
2020-Jan-25 11:46 144 7 gusting 14 5.0
2020-Jan-25 11:30 315 7 gusting 17 5.0